GEFSMA_prec_meanprecacc_198.txt.gz
Total_Precipitation_Accumulation
2.15 2.14 2.05 2.06 1.98 2.18 2.40 2.74 2.68 2.90 2.84 2.50 2.11 1.94 1.96 2.05 1.98 2.10 2.33 2.36 2.19 2.21 2.89 3.26 3.16 2.87 2.45 2.02 1.76 1.63 1.52 1.35 1.19 0.95 0.86 0.92 0.94 0.92 0.80 0.63 0.55 0.45 0.35
2.58 2.53 2.33 2.32 2.20 2.26 2.58 2.83 2.86 3.29 3.13 2.95 2.48 2.28 2.13 2.11 2.11 2.24 2.44 2.60 2.53 2.48 2.85 3.28 3.50 3.39 2.99 2.45 2.04 1.82 1.73 1.68 1.51 1.13 0.94 0.97 1.04 1.02 0.95 0.81 0.64 0.50 0.40
2.72 2.60 2.49 2.39 2.49 2.60 2.76 2.82 2.95 3.30 3.06 2.96 2.80 2.58 2.37 2.21 2.13 2.27 2.58 2.86 2.59 2.50 2.81 3.21 3.57 3.49 3.30 2.99 2.52 2.20 1.97 1.79 1.67 1.38 1.08 0.95 0.96 0.96 0.93 0.91 0.77 0.57 0.40
2.77 2.83 2.62 2.43 2.64 2.76 2.91 3.10 3.07 3.15 3.21 3.19 3.06 2.73 2.56 2.45 2.16 2.23 2.37 2.54 2.72 2.32 2.69 3.20 3.39 3.20 3.20 3.33 3.26 3.00 2.63 2.22 1.94 1.62 1.32 1.12 1.03 0.98 0.93 0.91 0.81 0.63 0.43
2.67 2.96 2.79 2.76 2.84 3.05 2.95 2.75 3.14 3.26 3.24 3.21 2.89 2.78 2.44 2.34 2.23 2.13 2.22 2.32 2.50 2.48 2.53 2.62 3.05 2.94 3.14 3.54 3.76 3.81 3.55 3.07 2.52 2.09 1.74 1.48 1.36 1.18 1.00 0.93 0.84 0.64 0.46
2.62 2.90 2.71 2.73 2.91 3.16 3.23 3.22 3.37 3.28 3.14 3.19 2.79 2.63 2.32 2.04 2.00 1.96 1.86 2.07 2.14 1.95 2.08 2.29 2.65 2.27 2.48 2.92 3.34 3.80 4.05 4.00 3.43 2.74 2.40 2.18 2.02 1.65 1.23 1.01 0.87 0.73 0.57
2.55 2.82 2.59 2.90 2.99 3.09 3.22 3.24 3.40 3.29 3.09 3.22 3.10 2.65 2.16 1.87 1.75 1.61 1.68 1.82 1.77 1.85 2.10 2.43 2.68 2.66 2.35 2.31 2.52 3.07 3.81 4.33 4.17 3.55 3.18 2.96 2.76 2.30 1.62 1.23 0.94 0.77 0.68
2.48 2.57 2.91 2.93 3.01 3.13 3.12 3.06 3.11 2.95 2.72 3.04 3.11 2.93 2.35 2.00 1.67 1.39 1.59 1.59 1.70 1.96 2.01 2.03 2.33 2.66 2.54 2.58 2.25 2.24 3.19 4.15 4.58 4.42 4.17 3.84 3.44 2.72 2.03 1.58 1.15 0.88 0.77
2.62 2.70 2.88 2.94 2.89 2.80 2.86 2.95 2.85 2.74 2.59 2.71 2.91 2.94 2.50 2.07 1.71 1.45 1.41 1.46 1.77 1.94 1.91 1.91 1.89 2.03 2.11 2.51 2.69 2.35 2.49 2.84 3.55 4.47 4.88 4.74 4.00 2.93 2.24 1.88 1.59 1.19 0.90
2.37 2.46 2.52 2.65 2.72 2.67 2.69 2.60 2.59 2.62 2.58 2.46 2.63 2.66 2.53 2.33 2.11 1.67 1.36 1.37 1.60 1.71 1.68 1.57 1.67 1.90 2.01 2.36 2.59 2.23 1.98 1.91 2.18 3.18 4.17 4.41 3.99 3.02 2.33 2.10 2.08 1.79 1.28
2.17 2.13 2.23 2.39 2.43 2.34 2.33 2.46 2.66 2.62 2.46 2.34 2.44 2.52 2.65 2.58 2.31 2.00 1.60 1.45 1.42 1.32 1.41 1.45 1.51 1.60 1.81 2.15 2.36 2.00 1.88 1.68 1.60 1.94 2.60 3.11 3.27 2.95 2.52 2.42 2.61 2.56 2.13
2.07 1.98 1.98 2.08 2.12 2.12 2.09 2.11 2.24 2.30 2.29 2.38 2.41 2.40 2.53 2.52 2.42 2.30 1.91 1.65 1.49 1.19 1.22 1.30 1.41 1.49 1.60 1.78 1.65 1.63 1.70 1.53 1.40 1.40 1.65 2.03 2.39 2.54 2.44 2.52 2.78 2.89 2.81
1.99 1.92 1.84 1.77 1.76 1.78 1.84 2.03 2.07 2.07 2.14 2.27 2.27 2.30 2.24 2.18 2.23 2.23 2.06 1.79 1.59 1.24 1.25 1.19 1.23 1.32 1.27 1.54 1.60 1.58 1.48 1.36 1.29 1.28 1.33 1.43 1.66 1.87 2.06 2.23 2.52 2.81 3.01
1.93 1.79 1.65 1.56 1.51 1.51 1.60 1.82 1.99 1.97 2.06 2.12 2.05 2.11 2.02 1.92 2.02 2.02 2.00 2.02 1.86 1.68 1.63 1.45 1.18 1.14 1.20 1.29 1.36 1.39 1.28 1.22 1.10 1.06 1.06 1.09 1.21 1.35 1.51 1.72 1.96 2.13 2.31
1.60 1.54 1.47 1.44 1.39 1.42 1.48 1.53 1.66 1.66 1.74 1.79 1.84 1.82 1.74 1.73 1.81 1.84 1.93 2.03 2.02 1.89 1.86 1.74 1.35 1.12 1.12 1.22 1.40 1.23 1.17 1.08 0.98 0.92 0.85 0.86 0.90 0.98 1.08 1.19 1.38 1.56 1.63
1.53 1.41 1.37 1.36 1.32 1.29 1.29 1.34 1.38 1.44 1.44 1.45 1.61 1.62 1.60 1.61 1.71 1.73 1.79 1.94 2.06 2.07 1.92 1.73 1.53 1.24 1.23 1.14 1.24 1.22 1.19 1.10 0.93 0.81 0.71 0.70 0.74 0.82 0.91 0.97 1.05 1.17 1.23
1.52 1.46 1.37 1.33 1.23 1.15 1.13 1.16 1.15 1.25 1.26 1.24 1.29 1.32 1.37 1.49 1.64 1.68 1.71 1.77 1.97 2.13 2.04 1.93 1.78 1.64 1.50 1.35 1.18 1.16 1.19 1.12 0.93 0.78 0.65 0.61 0.65 0.68 0.72 0.81 0.90 1.01 1.09
1.24 1.21 1.19 1.25 1.27 1.23 1.19 1.15 1.11 1.10 1.15 1.18 1.22 1.30 1.34 1.47 1.60 1.57 1.66 1.73 1.90 2.11 2.19 2.32 2.35 2.09 1.80 1.56 1.44 1.28 1.03 0.94 0.95 0.81 0.66 0.59 0.57 0.60 0.62 0.67 0.74 0.88 0.99
1.18 1.16 1.14 1.14 1.13 1.19 1.30 1.32 1.28 1.27 1.29 1.21 1.25 1.32 1.27 1.30 1.39 1.42 1.54 1.67 1.82 1.97 2.15 2.24 2.36 2.17 1.98 1.68 1.68 1.48 1.22 1.16 0.93 0.87 0.75 0.63 0.58 0.58 0.59 0.64 0.69 0.75 0.83
1.21 1.21 1.14 1.11 1.10 1.09 1.15 1.28 1.32 1.30 1.26 1.20 1.19 1.17 1.11 1.11 1.20 1.29 1.35 1.52 1.68 1.85 1.97 1.99 2.10 2.16 2.17 2.13 2.07 1.85 1.67 1.47 1.20 0.93 0.89 0.72 0.65 0.61 0.58 0.58 0.62 0.70 0.80
1.15 1.22 1.13 1.08 1.09 1.11 1.06 1.08 1.17 1.17 1.15 1.10 1.10 1.03 0.90 0.90 0.94 0.99 1.04 1.29 1.49 1.64 1.78 1.87 1.97 2.14 2.25 2.38 2.24 2.11 1.98 1.84 1.58 1.34 1.31 1.03 0.89 0.75 0.63 0.60 0.61 0.63 0.70
1.12 1.13 1.08 1.07 1.03 0.88 0.89 0.88 0.88 0.93 0.98 1.00 1.02 1.02 0.90 0.77 0.73 0.77 0.80 0.92 1.11 1.28 1.50 1.75 1.90 2.12 2.22 2.20 2.31 2.28 2.20 2.05 1.91 1.71 1.67 1.62 1.45 1.29 1.04 0.77 0.70 0.62 0.58
1.08 1.06 1.01 1.00 0.99 0.92 0.77 0.69 0.67 0.77 0.88 0.90 0.94 0.97 0.82 0.72 0.72 0.67 0.73 0.79 0.83 0.89 1.02 1.34 1.62 1.76 1.79 1.80 2.03 2.20 2.20 2.12 2.08 1.95 1.96 2.01 1.87 1.63 1.26 1.05 0.92 0.74 0.64
1.03 1.06 1.01 0.98 1.03 0.95 0.79 0.66 0.57 0.56 0.69 0.78 0.81 0.84 0.85 0.87 0.79 0.76 0.76 0.79 0.76 0.76 0.78 0.84 1.00 1.15 1.32 1.48 1.70 1.98 2.22 2.19 2.20 2.16 2.10 2.21 2.10 1.94 1.57 1.23 1.01 0.80 0.71
1.05 1.04 1.03 1.03 1.03 1.02 0.85 0.67 0.60 0.63 0.76 0.79 0.80 0.80 0.85 0.91 0.85 0.69 0.68 0.76 0.80 0.82 0.71 0.71 0.73 0.84 0.97 1.11 1.30 1.55 1.82 2.11 2.36 2.38 2.17 2.20 2.16 2.16 2.11 1.69 1.27 1.02 0.81
1.13 1.06 1.09 1.12 1.09 1.11 0.90 0.63 0.56 0.66 0.85 0.90 0.97 0.94 0.82 0.75 0.71 0.56 0.59 0.72 0.74 0.75 0.69 0.68 0.69 0.70 0.74 0.88 1.00 1.21 1.41 1.66 1.91 2.08 2.06 2.14 2.25 2.51 2.62 2.19 1.64 1.20 0.98

GEFSMA_prec_meanprecacc_204.txt.gz
Total_Precipitation_Accumulation
2.16 2.17 2.11 2.12 2.01 2.19 2.41 2.75 2.70 2.92 2.85 2.52 2.14 1.97 1.98 2.07 2.00 2.11 2.35 2.41 2.24 2.26 2.94 3.31 3.21 2.90 2.47 2.05 1.79 1.65 1.55 1.39 1.23 0.97 0.88 0.94 0.97 0.96 0.84 0.66 0.56 0.46 0.37
2.59 2.55 2.37 2.37 2.23 2.28 2.59 2.83 2.88 3.31 3.16 3.00 2.52 2.31 2.14 2.12 2.12 2.25 2.46 2.64 2.59 2.54 2.91 3.35 3.56 3.44 3.04 2.49 2.08 1.85 1.78 1.73 1.55 1.16 0.96 1.00 1.07 1.06 0.99 0.85 0.67 0.51 0.41
2.74 2.63 2.52 2.42 2.52 2.63 2.77 2.83 2.98 3.33 3.10 3.01 2.84 2.62 2.39 2.22 2.15 2.29 2.59 2.88 2.63 2.55 2.87 3.27 3.63 3.55 3.36 3.05 2.57 2.24 2.01 1.83 1.71 1.41 1.11 0.98 0.98 0.99 0.97 0.94 0.80 0.60 0.42
2.78 2.85 2.67 2.49 2.67 2.79 2.94 3.12 3.10 3.18 3.24 3.24 3.09 2.76 2.59 2.48 2.18 2.25 2.40 2.55 2.74 2.36 2.73 3.27 3.45 3.26 3.26 3.38 3.31 3.06 2.69 2.26 1.97 1.64 1.34 1.15 1.07 1.02 0.98 0.96 0.86 0.68 0.46
2.69 2.98 2.82 2.80 2.89 3.09 3.00 2.80 3.19 3.30 3.29 3.27 2.94 2.81 2.47 2.36 2.26 2.17 2.26 2.35 2.53 2.50 2.57 2.67 3.10 2.99 3.20 3.61 3.83 3.88 3.62 3.13 2.56 2.13 1.78 1.52 1.40 1.22 1.05 0.98 0.87 0.67 0.50
2.64 2.92 2.73 2.76 2.95 3.21 3.28 3.28 3.42 3.33 3.19 3.24 2.83 2.67 2.36 2.07 2.04 2.00 1.90 2.11 2.18 1.97 2.11 2.33 2.69 2.31 2.52 2.97 3.41 3.87 4.12 4.07 3.50 2.81 2.46 2.23 2.06 1.69 1.26 1.03 0.89 0.76 0.60
2.57 2.84 2.61 2.93 3.02 3.13 3.26 3.29 3.45 3.34 3.13 3.26 3.14 2.68 2.20 1.91 1.78 1.64 1.71 1.85 1.80 1.87 2.14 2.47 2.71 2.68 2.37 2.34 2.56 3.13 3.88 4.41 4.25 3.63 3.27 3.03 2.81 2.35 1.66 1.27 0.97 0.81 0.71
2.51 2.60 2.93 2.96 3.04 3.16 3.16 3.10 3.15 3.00 2.77 3.09 3.15 2.97 2.37 2.04 1.69 1.41 1.60 1.60 1.73 1.98 2.03 2.05 2.35 2.67 2.56 2.60 2.27 2.28 3.24 4.21 4.65 4.50 4.25 3.91 3.51 2.79 2.10 1.65 1.21 0.92 0.80
2.67 2.75 2.92 2.98 2.93 2.84 2.92 3.01 2.91 2.80 2.65 2.76 2.95 2.97 2.52 2.08 1.72 1.46 1.42 1.47 1.78 1.97 1.93 1.93 1.91 2.05 2.13 2.53 2.72 2.38 2.52 2.88 3.59 4.51 4.93 4.79 4.05 2.96 2.28 1.92 1.63 1.23 0.93
2.45 2.53 2.58 2.70 2.76 2.72 2.74 2.65 2.64 2.67 2.63 2.49 2.67 2.69 2.55 2.34 2.12 1.67 1.37 1.37 1.60 1.73 1.70 1.59 1.69 1.92 2.02 2.38 2.62 2.26 2.01 1.93 2.20 3.21 4.21 4.46 4.03 3.04 2.36 2.15 2.14 1.85 1.32
2.23 2.20 2.29 2.45 2.48 2.38 2.36 2.50 2.70 2.67 2.51 2.37 2.48 2.54 2.67 2.59 2.31 2.01 1.60 1.46 1.43 1.33 1.43 1.47 1.52 1.61 1.82 2.16 2.38 2.03 1.91 1.70 1.62 1.97 2.64 3.15 3.30 2.98 2.55 2.49 2.69 2.64 2.20
2.11 2.03 2.04 2.12 2.16 2.15 2.11 2.15 2.28 2.35 2.33 2.42 2.44 2.41 2.54 2.53 2.43 2.31 1.91 1.65 1.50 1.19 1.23 1.30 1.42 1.50 1.61 1.79 1.66 1.66 1.74 1.56 1.42 1.42 1.68 2.06 2.41 2.56 2.46 2.55 2.82 2.96 2.91
2.02 1.97 1.90 1.84 1.82 1.82 1.90 2.09 2.12 2.10 2.17 2.29 2.29 2.31 2.26 2.20 2.24 2.24 2.07 1.80 1.60 1.25 1.26 1.20 1.23 1.33 1.28 1.56 1.62 1.61 1.51 1.39 1.31 1.30 1.35 1.44 1.67 1.88 2.08 2.25 2.55 2.85 3.07
1.99 1.86 1.72 1.63 1.57 1.58 1.67 1.88 2.03 2.01 2.09 2.14 2.06 2.13 2.03 1.93 2.04 2.04 2.01 2.03 1.87 1.69 1.64 1.47 1.19 1.15 1.21 1.30 1.38 1.41 1.31 1.25 1.12 1.08 1.08 1.11 1.22 1.36 1.51 1.73 1.97 2.15 2.33
1.65 1.59 1.53 1.49 1.44 1.48 1.55 1.59 1.71 1.70 1.78 1.81 1.87 1.84 1.76 1.75 1.83 1.87 1.96 2.05 2.03 1.90 1.86 1.74 1.36 1.13 1.13 1.24 1.43 1.26 1.18 1.10 1.01 0.94 0.87 0.88 0.91 1.00 1.09 1.20 1.39 1.56 1.64
1.59 1.46 1.42 1.40 1.36 1.33 1.35 1.40 1.44 1.48 1.47 1.48 1.63 1.64 1.62 1.63 1.73 1.76 1.82 1.96 2.07 2.09 1.93 1.73 1.53 1.24 1.23 1.16 1.28 1.23 1.21 1.12 0.95 0.82 0.73 0.72 0.76 0.84 0.92 0.98 1.05 1.17 1.23
1.56 1.51 1.43 1.39 1.28 1.20 1.19 1.21 1.19 1.29 1.29 1.27 1.33 1.35 1.41 1.51 1.66 1.70 1.73 1.79 1.99 2.15 2.05 1.94 1.79 1.65 1.51 1.37 1.20 1.18 1.21 1.13 0.95 0.80 0.66 0.62 0.66 0.69 0.73 0.81 0.91 1.01 1.09
1.29 1.26 1.24 1.29 1.30 1.28 1.25 1.20 1.14 1.13 1.17 1.20 1.26 1.33 1.36 1.49 1.62 1.59 1.67 1.75 1.91 2.14 2.21 2.34 2.36 2.11 1.81 1.58 1.46 1.29 1.05 0.96 0.97 0.82 0.67 0.59 0.57 0.60 0.63 0.68 0.75 0.88 1.00
1.22 1.20 1.19 1.19 1.18 1.26 1.36 1.38 1.32 1.30 1.31 1.23 1.28 1.35 1.30 1.33 1.41 1.44 1.55 1.68 1.83 1.99 2.18 2.27 2.38 2.19 2.00 1.70 1.71 1.50 1.23 1.17 0.94 0.88 0.76 0.64 0.58 0.58 0.60 0.65 0.70 0.76 0.84
1.26 1.25 1.19 1.16 1.16 1.14 1.20 1.32 1.36 1.34 1.29 1.24 1.24 1.21 1.14 1.14 1.22 1.31 1.37 1.54 1.71 1.88 2.00 2.02 2.13 2.19 2.21 2.16 2.10 1.88 1.69 1.48 1.21 0.95 0.90 0.74 0.67 0.63 0.60 0.60 0.63 0.71 0.82
1.19 1.27 1.18 1.13 1.14 1.15 1.10 1.12 1.22 1.22 1.21 1.17 1.15 1.07 0.94 0.93 0.97 1.02 1.08 1.33 1.54 1.69 1.84 1.93 2.03 2.19 2.29 2.41 2.27 2.13 1.99 1.86 1.59 1.36 1.33 1.04 0.90 0.76 0.65 0.62 0.62 0.64 0.71
1.16 1.17 1.13 1.12 1.09 0.95 0.97 0.96 0.96 1.01 1.06 1.06 1.07 1.07 0.94 0.81 0.77 0.81 0.83 0.97 1.18 1.36 1.57 1.81 1.97 2.18 2.25 2.23 2.34 2.31 2.22 2.07 1.92 1.72 1.68 1.63 1.46 1.30 1.04 0.78 0.72 0.63 0.59
1.12 1.10 1.06 1.05 1.04 0.99 0.86 0.79 0.79 0.88 0.97 0.99 1.01 1.04 0.89 0.78 0.79 0.72 0.78 0.85 0.89 0.95 1.08 1.42 1.69 1.81 1.83 1.83 2.06 2.22 2.22 2.14 2.09 1.96 1.97 2.01 1.88 1.63 1.27 1.06 0.94 0.76 0.66
1.06 1.10 1.04 1.03 1.07 1.00 0.87 0.78 0.71 0.67 0.80 0.88 0.89 0.93 0.94 0.95 0.88 0.84 0.82 0.84 0.80 0.81 0.84 0.90 1.05 1.18 1.35 1.51 1.73 2.01 2.24 2.21 2.21 2.17 2.11 2.21 2.10 1.94 1.58 1.23 1.02 0.81 0.74
1.09 1.09 1.09 1.10 1.10 1.10 1.00 0.86 0.79 0.80 0.90 0.92 0.93 0.91 0.93 0.97 0.93 0.78 0.76 0.83 0.87 0.89 0.79 0.78 0.78 0.88 1.01 1.15 1.33 1.57 1.84 2.13 2.37 2.39 2.18 2.21 2.16 2.17 2.11 1.69 1.27 1.02 0.81
1.18 1.15 1.21 1.25 1.22 1.26 1.10 0.88 0.81 0.87 1.01 1.04 1.10 1.05 0.92 0.82 0.79 0.65 0.67 0.79 0.80 0.80 0.74 0.73 0.73 0.73 0.77 0.90 1.03 1.23 1.44 1.69 1.93 2.10 2.08 2.15 2.26 2.51 2.63 2.20 1.64 1.20 0.99

GEFSMA_prec_meanprecacc_210.txt.gz
Total_Precipitation_Accumulation
2.18 2.20 2.17 2.17 2.03 2.22 2.43 2.79 2.75 2.97 2.92 2.58 2.18 2.01 2.01 2.09 2.03 2.15 2.40 2.46 2.29 2.32 3.00 3.36 3.26 2.95 2.51 2.08 1.82 1.68 1.58 1.44 1.26 0.99 0.90 0.97 1.00 1.00 0.88 0.70 0.60 0.49 0.39
2.63 2.62 2.53 2.49 2.29 2.30 2.61 2.87 2.94 3.39 3.24 3.08 2.59 2.36 2.17 2.14 2.15 2.29 2.50 2.71 2.66 2.61 2.97 3.41 3.62 3.52 3.13 2.57 2.14 1.89 1.83 1.78 1.58 1.18 0.98 1.01 1.09 1.08 1.02 0.89 0.71 0.54 0.43
2.78 2.69 2.70 2.59 2.61 2.67 2.81 2.87 3.03 3.41 3.18 3.09 2.92 2.67 2.42 2.26 2.18 2.32 2.64 2.96 2.70 2.62 2.92 3.33 3.69 3.63 3.44 3.12 2.63 2.32 2.07 1.87 1.73 1.43 1.13 1.00 1.00 1.00 0.98 0.97 0.83 0.62 0.44
2.82 2.90 2.74 2.57 2.74 2.83 2.98 3.18 3.17 3.27 3.35 3.35 3.18 2.82 2.64 2.54 2.23 2.30 2.45 2.62 2.82 2.43 2.80 3.33 3.53 3.33 3.32 3.46 3.38 3.15 2.77 2.31 2.00 1.66 1.36 1.18 1.09 1.04 0.99 0.98 0.88 0.69 0.47
2.74 3.05 2.89 2.91 2.97 3.15 3.06 2.85 3.26 3.39 3.39 3.39 3.01 2.88 2.51 2.43 2.33 2.23 2.33 2.41 2.60 2.57 2.64 2.72 3.14 3.03 3.24 3.67 3.90 3.96 3.69 3.18 2.61 2.16 1.80 1.56 1.45 1.26 1.07 0.99 0.89 0.70 0.51
2.71 2.99 2.80 2.85 3.06 3.32 3.38 3.36 3.52 3.42 3.28 3.34 2.89 2.73 2.41 2.13 2.09 2.07 1.95 2.15 2.23 2.03 2.17 2.36 2.74 2.35 2.55 3.01 3.46 3.95 4.20 4.14 3.56 2.85 2.51 2.28 2.11 1.73 1.28 1.05 0.90 0.78 0.61
2.64 2.93 2.68 3.02 3.12 3.25 3.40 3.40 3.55 3.43 3.22 3.34 3.23 2.76 2.26 1.96 1.84 1.70 1.75 1.89 1.84 1.90 2.17 2.52 2.78 2.73 2.41 2.36 2.59 3.17 3.95 4.48 4.31 3.69 3.33 3.08 2.86 2.39 1.69 1.29 0.99 0.82 0.72
2.59 2.67 3.03 3.05 3.14 3.29 3.32 3.22 3.26 3.11 2.88 3.18 3.27 3.08 2.46 2.13 1.77 1.45 1.64 1.64 1.77 2.02 2.07 2.10 2.40 2.72 2.60 2.66 2.31 2.29 3.27 4.26 4.71 4.56 4.30 3.95 3.55 2.82 2.13 1.68 1.24 0.94 0.82
2.73 2.81 3.00 3.08 3.06 2.95 3.05 3.18 3.05 2.94 2.80 2.88 3.06 3.10 2.62 2.17 1.79 1.51 1.45 1.49 1.82 2.02 1.99 1.97 1.93 2.09 2.17 2.57 2.77 2.40 2.54 2.89 3.63 4.55 4.96 4.84 4.09 2.99 2.29 1.94 1.66 1.26 0.95
2.50 2.60 2.66 2.80 2.89 2.83 2.87 2.79 2.78 2.82 2.81 2.64 2.78 2.78 2.64 2.43 2.20 1.74 1.40 1.39 1.62 1.76 1.75 1.63 1.72 1.96 2.07 2.42 2.67 2.28 2.02 1.94 2.22 3.23 4.24 4.50 4.06 3.06 2.38 2.17 2.17 1.88 1.36
2.27 2.25 2.35 2.52 2.56 2.47 2.45 2.60 2.82 2.78 2.65 2.51 2.58 2.63 2.74 2.67 2.38 2.07 1.65 1.50 1.45 1.34 1.45 1.50 1.55 1.64 1.86 2.21 2.44 2.05 1.92 1.71 1.62 1.98 2.66 3.17 3.33 3.01 2.58 2.51 2.71 2.68 2.25
2.15 2.07 2.09 2.19 2.23 2.22 2.19 2.24 2.38 2.43 2.41 2.52 2.53 2.48 2.61 2.60 2.49 2.36 1.95 1.69 1.53 1.22 1.24 1.33 1.45 1.53 1.64 1.82 1.69 1.66 1.74 1.57 1.43 1.43 1.69 2.08 2.43 2.58 2.48 2.57 2.84 2.99 2.96
2.06 2.01 1.96 1.91 1.89 1.90 1.98 2.18 2.20 2.17 2.25 2.37 2.36 2.38 2.33 2.25 2.28 2.28 2.11 1.83 1.62 1.28 1.29 1.22 1.25 1.35 1.30 1.58 1.66 1.63 1.52 1.40 1.31 1.31 1.36 1.45 1.68 1.89 2.09 2.26 2.56 2.87 3.09
2.04 1.93 1.77 1.68 1.63 1.64 1.72 1.94 2.09 2.06 2.14 2.20 2.11 2.21 2.10 1.99 2.09 2.08 2.06 2.08 1.91 1.72 1.67 1.50 1.21 1.17 1.23 1.33 1.41 1.43 1.32 1.26 1.13 1.09 1.09 1.12 1.23 1.37 1.52 1.74 1.97 2.15 2.34
1.69 1.64 1.58 1.54 1.48 1.52 1.59 1.65 1.75 1.73 1.81 1.85 1.92 1.90 1.81 1.81 1.88 1.91 2.00 2.10 2.08 1.95 1.90 1.77 1.38 1.14 1.15 1.27 1.46 1.28 1.23 1.13 1.03 0.96 0.88 0.89 0.92 1.00 1.09 1.20 1.39 1.57 1.64
1.63 1.51 1.47 1.43 1.39 1.36 1.39 1.46 1.48 1.51 1.52 1.54 1.69 1.70 1.68 1.68 1.79 1.79 1.85 1.99 2.10 2.14 1.97 1.76 1.56 1.26 1.26 1.18 1.30 1.26 1.25 1.16 0.99 0.85 0.75 0.73 0.77 0.85 0.93 0.98 1.06 1.18 1.24
1.62 1.57 1.49 1.45 1.35 1.26 1.25 1.27 1.25 1.34 1.34 1.33 1.37 1.40 1.46 1.56 1.71 1.74 1.76 1.81 2.02 2.20 2.09 1.96 1.82 1.67 1.54 1.41 1.23 1.21 1.24 1.16 0.98 0.82 0.67 0.63 0.67 0.70 0.74 0.83 0.92 1.02 1.10
1.33 1.31 1.29 1.34 1.36 1.35 1.32 1.28 1.23 1.21 1.24 1.25 1.30 1.37 1.40 1.52 1.65 1.63 1.71 1.78 1.94 2.17 2.24 2.38 2.40 2.14 1.84 1.62 1.49 1.33 1.07 0.98 0.99 0.84 0.68 0.60 0.58 0.61 0.64 0.69 0.76 0.89 1.00
1.26 1.26 1.25 1.24 1.23 1.31 1.41 1.42 1.37 1.36 1.37 1.28 1.33 1.38 1.33 1.36 1.44 1.46 1.58 1.71 1.85 2.01 2.21 2.30 2.41 2.22 2.02 1.73 1.74 1.53 1.25 1.19 0.96 0.89 0.78 0.65 0.59 0.59 0.61 0.66 0.71 0.77 0.85
1.29 1.30 1.25 1.21 1.21 1.19 1.25 1.36 1.40 1.38 1.35 1.30 1.30 1.26 1.19 1.18 1.26 1.35 1.40 1.57 1.75 1.92 2.04 2.07 2.17 2.23 2.26 2.19 2.14 1.92 1.73 1.52 1.24 0.96 0.92 0.76 0.69 0.65 0.62 0.62 0.65 0.73 0.83
1.23 1.32 1.24 1.20 1.21 1.21 1.14 1.16 1.26 1.27 1.26 1.22 1.21 1.12 0.99 0.98 1.03 1.08 1.13 1.39 1.60 1.76 1.90 1.98 2.08 2.25 2.34 2.47 2.31 2.17 2.03 1.90 1.63 1.38 1.35 1.06 0.93 0.78 0.66 0.63 0.64 0.66 0.73
1.21 1.22 1.18 1.19 1.15 0.99 1.02 1.01 1.01 1.06 1.12 1.13 1.14 1.14 1.00 0.86 0.81 0.86 0.88 1.03 1.25 1.43 1.65 1.89 2.04 2.25 2.33 2.30 2.41 2.37 2.27 2.11 1.97 1.76 1.72 1.65 1.48 1.32 1.06 0.79 0.73 0.64 0.60
1.17 1.14 1.10 1.10 1.09 1.03 0.89 0.83 0.83 0.94 1.06 1.10 1.12 1.14 0.98 0.86 0.85 0.78 0.84 0.90 0.94 1.01 1.14 1.49 1.78 1.89 1.92 1.93 2.15 2.30 2.30 2.22 2.17 2.02 2.02 2.05 1.91 1.66 1.29 1.07 0.95 0.77 0.67
1.10 1.13 1.07 1.06 1.12 1.04 0.90 0.80 0.74 0.71 0.85 0.95 0.97 1.01 1.01 1.02 0.93 0.88 0.87 0.89 0.86 0.87 0.91 0.97 1.13 1.28 1.48 1.65 1.84 2.10 2.34 2.29 2.28 2.22 2.16 2.27 2.14 1.98 1.60 1.25 1.04 0.83 0.74
1.13 1.12 1.12 1.14 1.16 1.16 1.05 0.91 0.85 0.86 0.99 1.03 1.04 1.02 1.04 1.07 1.01 0.84 0.81 0.88 0.93 0.96 0.87 0.87 0.88 0.98 1.10 1.24 1.41 1.65 1.92 2.20 2.44 2.45 2.24 2.26 2.21 2.20 2.14 1.72 1.29 1.04 0.83
1.22 1.18 1.25 1.28 1.27 1.30 1.14 0.94 0.91 0.97 1.15 1.22 1.31 1.26 1.11 0.95 0.89 0.74 0.74 0.85 0.85 0.86 0.80 0.79 0.79 0.79 0.83 0.96 1.09 1.29 1.50 1.77 2.02 2.17 2.14 2.21 2.30 2.56 2.67 2.23 1.67 1.23 1.01

GEFSMA_prec_meanprecacc_216.txt.gz
Total_Precipitation_Accumulation
2.24 2.27 2.24 2.23 2.07 2.24 2.47 2.84 2.80 3.01 2.97 2.64 2.23 2.06 2.06 2.12 2.05 2.18 2.44 2.47 2.29 2.33 3.01 3.38 3.27 2.97 2.54 2.10 1.85 1.70 1.61 1.46 1.28 1.01 0.92 0.99 1.02 1.02 0.90 0.71 0.62 0.51 0.41
2.67 2.68 2.58 2.54 2.32 2.33 2.65 2.91 2.97 3.43 3.28 3.14 2.63 2.39 2.22 2.19 2.19 2.32 2.54 2.74 2.68 2.62 2.99 3.43 3.64 3.55 3.18 2.61 2.18 1.92 1.86 1.79 1.60 1.20 1.00 1.03 1.10 1.10 1.04 0.92 0.73 0.55 0.44
2.81 2.73 2.74 2.63 2.64 2.69 2.84 2.90 3.06 3.45 3.22 3.14 2.97 2.71 2.48 2.32 2.21 2.36 2.69 3.02 2.75 2.66 2.95 3.35 3.71 3.66 3.48 3.16 2.66 2.35 2.09 1.88 1.74 1.45 1.14 1.02 1.01 1.01 0.99 0.98 0.85 0.63 0.45
2.86 2.94 2.77 2.62 2.79 2.87 3.02 3.22 3.21 3.31 3.40 3.40 3.24 2.88 2.70 2.61 2.26 2.34 2.51 2.70 2.91 2.49 2.83 3.36 3.56 3.36 3.35 3.49 3.42 3.18 2.78 2.32 2.01 1.67 1.37 1.19 1.11 1.06 1.01 0.99 0.89 0.71 0.48
2.77 3.10 2.95 2.97 3.06 3.24 3.12 2.90 3.33 3.44 3.45 3.44 3.04 2.93 2.55 2.49 2.38 2.30 2.41 2.48 2.70 2.66 2.70 2.75 3.16 3.04 3.25 3.69 3.93 3.99 3.72 3.21 2.62 2.17 1.81 1.58 1.47 1.28 1.09 1.00 0.90 0.70 0.52
2.75 3.06 2.86 2.90 3.12 3.43 3.49 3.44 3.59 3.48 3.34 3.40 2.92 2.78 2.45 2.17 2.15 2.12 1.99 2.21 2.32 2.09 2.23 2.42 2.79 2.38 2.57 3.03 3.48 3.97 4.23 4.17 3.58 2.87 2.52 2.30 2.13 1.74 1.30 1.06 0.91 0.78 0.61
2.71 3.01 2.78 3.11 3.19 3.35 3.51 3.49 3.63 3.52 3.30 3.40 3.30 2.84 2.32 2.00 1.89 1.75 1.79 1.94 1.88 1.93 2.22 2.58 2.84 2.79 2.43 2.38 2.60 3.18 3.97 4.51 4.33 3.70 3.34 3.11 2.88 2.41 1.70 1.30 1.00 0.83 0.72
2.64 2.73 3.12 3.12 3.22 3.39 3.42 3.32 3.36 3.20 2.96 3.23 3.36 3.21 2.60 2.25 1.86 1.50 1.68 1.68 1.80 2.05 2.10 2.13 2.46 2.79 2.66 2.72 2.35 2.31 3.29 4.28 4.73 4.58 4.32 3.98 3.57 2.85 2.15 1.69 1.25 0.95 0.83
2.77 2.88 3.08 3.16 3.15 3.03 3.16 3.30 3.13 3.03 2.91 2.96 3.14 3.21 2.78 2.33 1.91 1.59 1.49 1.52 1.85 2.06 2.01 1.99 1.95 2.13 2.23 2.64 2.84 2.43 2.55 2.91 3.65 4.58 4.99 4.86 4.11 3.00 2.31 1.95 1.67 1.27 0.96
2.56 2.66 2.73 2.89 2.96 2.89 2.97 2.88 2.88 2.94 2.93 2.75 2.87 2.86 2.72 2.53 2.33 1.88 1.50 1.45 1.66 1.79 1.78 1.65 1.74 1.99 2.11 2.49 2.74 2.31 2.03 1.95 2.24 3.26 4.27 4.53 4.08 3.08 2.39 2.18 2.18 1.90 1.37
2.35 2.30 2.43 2.61 2.64 2.54 2.52 2.68 2.93 2.88 2.75 2.61 2.67 2.72 2.84 2.77 2.48 2.17 1.76 1.60 1.52 1.40 1.50 1.53 1.59 1.68 1.90 2.27 2.50 2.08 1.92 1.72 1.63 1.99 2.68 3.19 3.35 3.03 2.60 2.52 2.73 2.70 2.28
2.24 2.14 2.15 2.27 2.32 2.31 2.28 2.32 2.45 2.51 2.51 2.61 2.63 2.57 2.70 2.67 2.55 2.42 2.02 1.75 1.60 1.27 1.29 1.36 1.48 1.56 1.67 1.86 1.73 1.69 1.75 1.58 1.44 1.43 1.69 2.09 2.45 2.60 2.50 2.59 2.86 3.01 2.98
2.12 2.08 2.03 2.00 1.99 2.01 2.09 2.28 2.28 2.25 2.33 2.45 2.43 2.45 2.39 2.30 2.33 2.32 2.17 1.87 1.67 1.32 1.32 1.25 1.27 1.38 1.32 1.60 1.70 1.65 1.53 1.42 1.33 1.31 1.37 1.46 1.69 1.91 2.11 2.27 2.57 2.88 3.11
2.10 2.01 1.86 1.76 1.72 1.73 1.83 2.07 2.18 2.14 2.23 2.26 2.16 2.29 2.17 2.04 2.13 2.13 2.11 2.15 1.98 1.77 1.72 1.54 1.23 1.18 1.26 1.36 1.44 1.45 1.34 1.27 1.14 1.10 1.10 1.12 1.23 1.37 1.53 1.74 1.98 2.16 2.35
1.77 1.73 1.66 1.60 1.56 1.60 1.69 1.76 1.83 1.81 1.92 1.93 2.00 2.00 1.88 1.87 1.93 1.95 2.05 2.16 2.15 2.03 1.98 1.83 1.42 1.16 1.17 1.32 1.49 1.30 1.25 1.15 1.04 0.97 0.89 0.90 0.92 1.01 1.10 1.21 1.40 1.57 1.64
1.71 1.59 1.53 1.47 1.44 1.43 1.46 1.55 1.56 1.60 1.62 1.61 1.78 1.82 1.79 1.77 1.87 1.85 1.91 2.05 2.17 2.21 2.03 1.80 1.60 1.29 1.29 1.22 1.34 1.29 1.27 1.18 1.00 0.86 0.76 0.74 0.77 0.86 0.94 0.99 1.07 1.19 1.24
1.71 1.65 1.57 1.53 1.43 1.34 1.34 1.39 1.34 1.45 1.46 1.44 1.47 1.51 1.57 1.67 1.82 1.82 1.83 1.87 2.08 2.28 2.17 2.03 1.89 1.74 1.61 1.47 1.28 1.26 1.27 1.19 0.99 0.83 0.68 0.63 0.67 0.71 0.75 0.84 0.93 1.03 1.10
1.41 1.40 1.38 1.41 1.43 1.45 1.45 1.38 1.33 1.33 1.38 1.38 1.42 1.51 1.50 1.63 1.76 1.72 1.79 1.85 2.03 2.28 2.35 2.47 2.48 2.21 1.93 1.71 1.58 1.40 1.12 1.02 1.01 0.86 0.70 0.61 0.59 0.62 0.64 0.69 0.76 0.89 1.01
1.34 1.34 1.33 1.32 1.32 1.42 1.53 1.53 1.48 1.47 1.48 1.39 1.45 1.51 1.44 1.49 1.56 1.59 1.68 1.82 1.97 2.13 2.31 2.38 2.48 2.31 2.12 1.83 1.86 1.62 1.33 1.24 0.98 0.92 0.82 0.67 0.61 0.60 0.61 0.66 0.72 0.78 0.86
1.36 1.39 1.35 1.30 1.31 1.29 1.35 1.49 1.54 1.51 1.48 1.43 1.42 1.40 1.32 1.32 1.40 1.51 1.55 1.73 1.90 2.04 2.15 2.16 2.25 2.32 2.35 2.29 2.26 2.03 1.83 1.60 1.29 1.00 0.96 0.79 0.72 0.67 0.64 0.63 0.66 0.74 0.84
1.28 1.41 1.34 1.29 1.30 1.30 1.22 1.25 1.36 1.35 1.37 1.34 1.31 1.20 1.05 1.05 1.12 1.19 1.24 1.51 1.72 1.86 1.98 2.06 2.16 2.34 2.45 2.59 2.44 2.30 2.16 2.01 1.72 1.45 1.42 1.12 0.99 0.84 0.70 0.66 0.66 0.68 0.74
1.28 1.30 1.27 1.28 1.24 1.05 1.08 1.08 1.08 1.14 1.21 1.22 1.24 1.24 1.09 0.94 0.89 0.95 0.97 1.12 1.37 1.54 1.74 1.98 2.12 2.34 2.44 2.42 2.55 2.51 2.41 2.25 2.07 1.82 1.79 1.72 1.56 1.40 1.13 0.85 0.78 0.69 0.63
1.25 1.22 1.17 1.18 1.17 1.10 0.96 0.87 0.88 1.01 1.15 1.20 1.23 1.27 1.08 0.95 0.94 0.87 0.92 0.99 1.03 1.10 1.22 1.57 1.85 1.98 2.01 2.04 2.29 2.43 2.43 2.34 2.27 2.10 2.11 2.14 1.99 1.75 1.37 1.15 1.03 0.84 0.72
1.18 1.21 1.15 1.14 1.21 1.12 0.99 0.86 0.78 0.78 0.94 1.03 1.05 1.10 1.12 1.12 1.03 0.98 0.95 0.97 0.93 0.94 0.98 1.04 1.20 1.36 1.56 1.75 1.96 2.21 2.46 2.41 2.38 2.32 2.27 2.37 2.22 2.06 1.69 1.36 1.15 0.92 0.82
1.21 1.19 1.20 1.23 1.26 1.25 1.14 0.98 0.90 0.92 1.05 1.09 1.12 1.13 1.17 1.22 1.18 0.99 0.93 0.98 1.01 1.05 0.97 0.98 0.96 1.04 1.16 1.29 1.46 1.72 2.01 2.31 2.54 2.55 2.36 2.40 2.33 2.31 2.22 1.80 1.37 1.12 0.90
1.31 1.27 1.33 1.37 1.35 1.35 1.19 0.98 0.95 1.02 1.21 1.30 1.42 1.40 1.27 1.14 1.10 0.95 0.93 1.01 0.99 0.99 0.92 0.91 0.89 0.87 0.90 1.03 1.15 1.34 1.57 1.86 2.12 2.28 2.24 2.34 2.46 2.71 2.80 2.32 1.74 1.30 1.08

GEFSMA_prec_meanprecacc_222.txt.gz
Total_Precipitation_Accumulation
2.26 2.29 2.26 2.26 2.10 2.26 2.48 2.86 2.83 3.05 3.01 2.69 2.27 2.12 2.14 2.20 2.12 2.23 2.48 2.51 2.32 2.35 3.03 3.40 3.29 2.99 2.55 2.12 1.86 1.72 1.62 1.48 1.29 1.02 0.93 1.01 1.05 1.05 0.92 0.73 0.64 0.54 0.42
2.68 2.68 2.59 2.56 2.35 2.35 2.67 2.93 3.00 3.46 3.33 3.18 2.68 2.44 2.29 2.26 2.25 2.38 2.61 2.79 2.71 2.65 3.02 3.47 3.68 3.58 3.20 2.64 2.20 1.94 1.88 1.81 1.61 1.22 1.01 1.04 1.13 1.12 1.05 0.93 0.75 0.58 0.46
2.83 2.74 2.75 2.64 2.65 2.71 2.87 2.94 3.10 3.48 3.27 3.19 3.02 2.75 2.53 2.38 2.29 2.45 2.78 3.09 2.81 2.69 2.98 3.40 3.77 3.71 3.51 3.19 2.69 2.37 2.11 1.90 1.75 1.46 1.16 1.03 1.03 1.03 1.01 1.00 0.87 0.65 0.46
2.89 2.96 2.79 2.63 2.80 2.89 3.05 3.26 3.25 3.35 3.44 3.43 3.27 2.93 2.76 2.66 2.32 2.40 2.57 2.74 2.95 2.55 2.88 3.40 3.63 3.41 3.38 3.53 3.45 3.20 2.80 2.34 2.04 1.69 1.39 1.22 1.14 1.08 1.02 1.01 0.91 0.73 0.49
2.83 3.15 2.99 3.00 3.09 3.27 3.17 2.94 3.38 3.50 3.49 3.46 3.07 2.98 2.62 2.57 2.47 2.36 2.47 2.52 2.74 2.71 2.74 2.79 3.21 3.07 3.28 3.73 3.98 4.05 3.76 3.24 2.65 2.19 1.84 1.61 1.49 1.29 1.11 1.02 0.91 0.72 0.53
2.83 3.13 2.92 2.94 3.16 3.47 3.54 3.48 3.64 3.51 3.37 3.44 2.97 2.83 2.51 2.27 2.25 2.20 2.04 2.26 2.36 2.12 2.27 2.46 2.81 2.39 2.59 3.06 3.53 4.03 4.27 4.20 3.61 2.90 2.56 2.34 2.16 1.77 1.32 1.08 0.93 0.79 0.63
2.79 3.08 2.81 3.14 3.21 3.37 3.55 3.55 3.70 3.56 3.34 3.44 3.36 2.90 2.38 2.09 2.00 1.83 1.85 2.00 1.94 1.98 2.27 2.62 2.86 2.80 2.45 2.41 2.63 3.23 4.03 4.56 4.37 3.74 3.38 3.14 2.93 2.45 1.74 1.33 1.02 0.84 0.74
2.68 2.76 3.15 3.14 3.24 3.41 3.44 3.38 3.44 3.28 3.01 3.28 3.41 3.27 2.64 2.30 1.93 1.58 1.76 1.74 1.86 2.11 2.15 2.16 2.48 2.81 2.67 2.74 2.36 2.34 3.35 4.34 4.79 4.63 4.37 4.02 3.62 2.89 2.19 1.73 1.28 0.97 0.84
2.82 2.92 3.12 3.20 3.19 3.07 3.19 3.34 3.17 3.08 2.96 3.02 3.19 3.26 2.81 2.37 1.95 1.66 1.56 1.58 1.91 2.12 2.07 2.03 1.98 2.16 2.26 2.68 2.86 2.45 2.59 2.96 3.70 4.64 5.05 4.92 4.15 3.03 2.34 1.99 1.70 1.29 0.99
2.61 2.71 2.79 2.95 3.01 2.94 3.00 2.91 2.91 2.97 2.96 2.79 2.92 2.90 2.75 2.56 2.38 1.92 1.55 1.51 1.72 1.85 1.85 1.71 1.78 2.03 2.15 2.54 2.78 2.33 2.05 1.98 2.28 3.30 4.31 4.57 4.11 3.10 2.41 2.20 2.21 1.93 1.41
2.40 2.35 2.49 2.66 2.70 2.62 2.57 2.75 2.99 2.94 2.80 2.67 2.72 2.76 2.88 2.79 2.51 2.20 1.79 1.65 1.58 1.45 1.55 1.60 1.67 1.74 1.96 2.31 2.54 2.11 1.95 1.75 1.66 2.03 2.72 3.24 3.40 3.07 2.64 2.56 2.76 2.74 2.33
2.30 2.19 2.20 2.34 2.43 2.42 2.40 2.46 2.55 2.59 2.58 2.68 2.69 2.63 2.75 2.71 2.59 2.46 2.05 1.77 1.62 1.30 1.32 1.40 1.53 1.61 1.72 1.91 1.78 1.72 1.79 1.62 1.46 1.46 1.72 2.12 2.48 2.64 2.55 2.64 2.90 3.05 3.03
2.17 2.13 2.08 2.06 2.06 2.08 2.16 2.36 2.36 2.32 2.40 2.50 2.49 2.52 2.45 2.33 2.36 2.36 2.21 1.90 1.70 1.33 1.34 1.27 1.30 1.40 1.34 1.65 1.74 1.69 1.58 1.46 1.35 1.33 1.38 1.47 1.71 1.92 2.12 2.29 2.59 2.91 3.14
2.15 2.07 1.92 1.82 1.76 1.78 1.87 2.13 2.26 2.22 2.31 2.34 2.25 2.36 2.22 2.09 2.20 2.20 2.17 2.21 2.02 1.80 1.74 1.55 1.25 1.21 1.28 1.40 1.48 1.50 1.39 1.31 1.17 1.12 1.11 1.14 1.24 1.38 1.54 1.75 1.99 2.17 2.36
1.82 1.80 1.74 1.64 1.59 1.64 1.74 1.83 1.91 1.89 2.01 2.02 2.09 2.09 1.95 1.93 2.01 2.02 2.13 2.25 2.23 2.10 2.02 1.85 1.44 1.19 1.21 1.37 1.55 1.36 1.31 1.20 1.08 1.00 0.92 0.92 0.94 1.02 1.12 1.23 1.42 1.59 1.66
1.79 1.67 1.59 1.51 1.48 1.47 1.52 1.63 1.65 1.69 1.71 1.69 1.85 1.90 1.87 1.86 1.96 1.92 1.98 2.12 2.25 2.30 2.10 1.85 1.64 1.33 1.35 1.29 1.42 1.35 1.33 1.24 1.05 0.90 0.79 0.76 0.80 0.88 0.97 1.03 1.10 1.22 1.27
1.80 1.73 1.63 1.57 1.46 1.38 1.40 1.47 1.41 1.53 1.56 1.54 1.56 1.59 1.64 1.75 1.89 1.88 1.89 1.94 2.14 2.37 2.26 2.09 1.94 1.78 1.66 1.53 1.35 1.32 1.32 1.23 1.04 0.88 0.73 0.67 0.70 0.74 0.78 0.86 0.95 1.05 1.13
1.49 1.47 1.45 1.46 1.47 1.51 1.52 1.46 1.40 1.39 1.45 1.44 1.49 1.59 1.57 1.71 1.84 1.79 1.87 1.92 2.09 2.36 2.44 2.55 2.55 2.26 1.96 1.76 1.65 1.46 1.17 1.06 1.08 0.93 0.77 0.67 0.63 0.65 0.67 0.71 0.78 0.91 1.03
1.41 1.40 1.40 1.38 1.37 1.49 1.61 1.61 1.55 1.54 1.56 1.46 1.53 1.60 1.54 1.60 1.66 1.69 1.78 1.90 2.06 2.22 2.41 2.46 2.55 2.38 2.18 1.89 1.93 1.69 1.39 1.30 1.04 0.97 0.88 0.73 0.64 0.63 0.63 0.68 0.73 0.79 0.88
1.44 1.46 1.42 1.37 1.37 1.35 1.42 1.56 1.64 1.60 1.56 1.50 1.49 1.47 1.40 1.40 1.47 1.59 1.63 1.81 1.99 2.14 2.26 2.26 2.33 2.39 2.40 2.35 2.33 2.11 1.91 1.66 1.34 1.03 1.01 0.84 0.76 0.71 0.67 0.65 0.69 0.76 0.87
1.39 1.49 1.41 1.37 1.37 1.36 1.28 1.34 1.46 1.45 1.46 1.41 1.38 1.26 1.11 1.13 1.20 1.29 1.32 1.61 1.84 1.96 2.07 2.14 2.22 2.39 2.49 2.64 2.49 2.36 2.22 2.07 1.77 1.49 1.46 1.16 1.03 0.89 0.76 0.72 0.72 0.72 0.78
1.42 1.42 1.35 1.35 1.31 1.12 1.16 1.18 1.17 1.21 1.28 1.28 1.31 1.32 1.18 1.03 0.98 1.05 1.07 1.22 1.47 1.63 1.82 2.06 2.20 2.40 2.49 2.47 2.61 2.57 2.47 2.31 2.12 1.86 1.84 1.77 1.61 1.46 1.20 0.93 0.86 0.76 0.70
1.40 1.32 1.25 1.25 1.24 1.17 1.05 0.96 0.95 1.08 1.22 1.27 1.29 1.33 1.14 1.01 1.00 0.93 1.01 1.08 1.12 1.20 1.33 1.67 1.94 2.06 2.09 2.11 2.38 2.50 2.50 2.40 2.31 2.14 2.17 2.19 2.04 1.80 1.42 1.20 1.09 0.90 0.79
1.28 1.29 1.22 1.20 1.28 1.20 1.09 0.93 0.85 0.84 1.00 1.08 1.10 1.14 1.16 1.16 1.08 1.05 1.03 1.04 1.00 1.01 1.07 1.14 1.29 1.44 1.65 1.84 2.05 2.29 2.52 2.48 2.44 2.37 2.34 2.44 2.29 2.12 1.75 1.42 1.22 0.99 0.89
1.31 1.29 1.27 1.30 1.33 1.31 1.21 1.03 0.95 0.96 1.09 1.14 1.17 1.18 1.22 1.27 1.23 1.05 1.00 1.04 1.07 1.12 1.06 1.09 1.06 1.13 1.24 1.36 1.53 1.78 2.08 2.39 2.61 2.61 2.42 2.47 2.38 2.38 2.29 1.86 1.44 1.19 0.97
1.38 1.35 1.40 1.43 1.40 1.40 1.24 1.02 0.99 1.05 1.25 1.34 1.46 1.46 1.34 1.19 1.15 1.01 1.00 1.09 1.07 1.09 1.03 1.02 0.98 0.95 0.96 1.10 1.23 1.40 1.62 1.92 2.19 2.34 2.29 2.39 2.53 2.79 2.87 2.38 1.80 1.35 1.13

GEFSMA_prec_meanprecacc_228.txt.gz
Total_Precipitation_Accumulation
2.27 2.30 2.27 2.26 2.10 2.26 2.49 2.88 2.86 3.09 3.05 2.73 2.33 2.17 2.17 2.22 2.15 2.27 2.53 2.55 2.37 2.41 3.10 3.47 3.35 3.04 2.60 2.17 1.92 1.78 1.69 1.51 1.32 1.06 0.96 1.04 1.09 1.07 0.94 0.75 0.66 0.56 0.44
2.69 2.70 2.61 2.58 2.37 2.37 2.68 2.95 3.03 3.49 3.37 3.23 2.74 2.49 2.34 2.30 2.27 2.40 2.65 2.83 2.77 2.72 3.10 3.55 3.74 3.64 3.26 2.70 2.25 1.99 1.93 1.85 1.64 1.24 1.05 1.08 1.16 1.14 1.08 0.96 0.77 0.61 0.48
2.85 2.77 2.78 2.66 2.68 2.73 2.89 2.96 3.13 3.52 3.32 3.25 3.09 2.81 2.58 2.42 2.32 2.50 2.82 3.12 2.84 2.75 3.07 3.50 3.86 3.78 3.59 3.29 2.75 2.40 2.14 1.93 1.78 1.48 1.19 1.07 1.07 1.05 1.03 1.02 0.90 0.68 0.50
2.94 3.00 2.82 2.67 2.84 2.92 3.08 3.30 3.31 3.40 3.50 3.49 3.32 2.98 2.82 2.72 2.36 2.46 2.62 2.78 2.97 2.57 2.94 3.51 3.73 3.49 3.46 3.61 3.54 3.28 2.88 2.39 2.07 1.73 1.43 1.26 1.18 1.10 1.05 1.03 0.95 0.76 0.53
2.87 3.18 3.02 3.03 3.12 3.31 3.20 2.98 3.44 3.58 3.55 3.52 3.11 3.03 2.68 2.63 2.52 2.41 2.52 2.55 2.77 2.73 2.76 2.85 3.30 3.16 3.35 3.80 4.06 4.13 3.85 3.31 2.70 2.24 1.88 1.65 1.54 1.33 1.14 1.05 0.94 0.75 0.56
2.86 3.16 2.96 2.97 3.18 3.49 3.57 3.52 3.71 3.60 3.45 3.52 3.03 2.88 2.56 2.33 2.31 2.24 2.08 2.30 2.40 2.16 2.30 2.49 2.86 2.44 2.65 3.13 3.60 4.12 4.37 4.28 3.67 2.95 2.60 2.38 2.21 1.81 1.35 1.12 0.97 0.82 0.65
2.83 3.13 2.86 3.18 3.24 3.39 3.57 3.59 3.76 3.66 3.44 3.53 3.44 2.97 2.45 2.14 2.04 1.87 1.89 2.05 1.99 2.03 2.32 2.67 2.90 2.83 2.49 2.46 2.69 3.30 4.13 4.66 4.46 3.81 3.43 3.19 2.97 2.49 1.77 1.37 1.06 0.87 0.76
2.72 2.81 3.22 3.20 3.26 3.43 3.46 3.41 3.49 3.36 3.11 3.37 3.48 3.33 2.71 2.35 1.96 1.62 1.80 1.78 1.91 2.16 2.19 2.20 2.52 2.84 2.70 2.76 2.39 2.41 3.43 4.44 4.90 4.73 4.45 4.09 3.67 2.93 2.22 1.76 1.32 1.01 0.88
2.86 2.96 3.17 3.24 3.22 3.09 3.22 3.37 3.22 3.16 3.05 3.11 3.27 3.32 2.85 2.39 1.98 1.70 1.58 1.61 1.96 2.17 2.11 2.07 2.01 2.19 2.29 2.71 2.90 2.49 2.66 3.03 3.78 4.71 5.12 4.98 4.21 3.09 2.38 2.02 1.74 1.33 1.02
2.65 2.75 2.83 2.98 3.06 2.98 3.04 2.97 2.98 3.05 3.03 2.87 3.00 2.95 2.80 2.60 2.41 1.94 1.56 1.53 1.75 1.88 1.89 1.76 1.82 2.07 2.20 2.58 2.81 2.36 2.08 2.03 2.33 3.36 4.38 4.64 4.18 3.16 2.45 2.24 2.25 1.97 1.44
2.46 2.41 2.54 2.70 2.75 2.67 2.62 2.82 3.07 3.02 2.85 2.72 2.79 2.82 2.94 2.84 2.55 2.24 1.81 1.67 1.60 1.47 1.58 1.63 1.69 1.78 2.00 2.36 2.57 2.14 1.98 1.77 1.70 2.07 2.77 3.31 3.47 3.14 2.69 2.59 2.80 2.78 2.36
2.36 2.28 2.28 2.43 2.51 2.49 2.46 2.54 2.64 2.69 2.66 2.74 2.74 2.68 2.81 2.79 2.66 2.52 2.08 1.80 1.65 1.31 1.34 1.42 1.55 1.64 1.75 1.94 1.80 1.75 1.83 1.66 1.50 1.50 1.76 2.17 2.55 2.70 2.59 2.67 2.94 3.10 3.09
2.25 2.23 2.18 2.21 2.16 2.14 2.22 2.42 2.44 2.40 2.46 2.55 2.53 2.57 2.50 2.40 2.43 2.43 2.26 1.93 1.72 1.35 1.35 1.28 1.31 1.42 1.37 1.67 1.78 1.72 1.62 1.51 1.39 1.38 1.41 1.50 1.75 1.97 2.17 2.34 2.65 2.97 3.20
2.21 2.13 1.99 1.91 1.84 1.85 1.91 2.18 2.33 2.29 2.36 2.39 2.30 2.42 2.28 2.15 2.26 2.25 2.22 2.25 2.06 1.83 1.76 1.58 1.27 1.23 1.31 1.43 1.51 1.53 1.42 1.36 1.22 1.17 1.15 1.17 1.27 1.42 1.58 1.79 2.03 2.21 2.40
1.87 1.86 1.81 1.72 1.67 1.70 1.78 1.87 1.95 1.94 2.06 2.08 2.15 2.14 1.99 1.97 2.05 2.07 2.18 2.30 2.30 2.16 2.06 1.89 1.48 1.22 1.24 1.41 1.59 1.40 1.34 1.23 1.13 1.05 0.96 0.96 0.99 1.06 1.15 1.26 1.46 1.62 1.69
1.86 1.76 1.68 1.60 1.56 1.52 1.56 1.68 1.68 1.72 1.74 1.73 1.90 1.95 1.91 1.89 1.99 1.96 2.03 2.17 2.31 2.36 2.15 1.89 1.68 1.37 1.39 1.32 1.47 1.41 1.38 1.28 1.09 0.94 0.83 0.80 0.85 0.92 0.99 1.05 1.13 1.25 1.30
1.90 1.86 1.74 1.66 1.52 1.43 1.46 1.51 1.43 1.55 1.59 1.56 1.61 1.64 1.69 1.80 1.93 1.92 1.95 2.00 2.21 2.43 2.31 2.13 1.98 1.83 1.70 1.57 1.40 1.38 1.36 1.27 1.08 0.93 0.78 0.72 0.75 0.77 0.81 0.88 0.97 1.08 1.16
1.58 1.58 1.55 1.53 1.52 1.56 1.59 1.50 1.43 1.43 1.47 1.46 1.52 1.62 1.60 1.75 1.88 1.84 1.92 1.97 2.16 2.45 2.54 2.65 2.63 2.33 2.01 1.80 1.70 1.52 1.22 1.12 1.13 1.00 0.85 0.75 0.70 0.72 0.73 0.76 0.83 0.96 1.07
1.50 1.50 1.51 1.46 1.44 1.57 1.68 1.65 1.58 1.58 1.60 1.49 1.56 1.63 1.57 1.64 1.70 1.73 1.82 1.94 2.11 2.29 2.49 2.52 2.60 2.42 2.22 1.92 1.98 1.74 1.44 1.35 1.09 1.03 0.94 0.80 0.71 0.70 0.70 0.75 0.79 0.84 0.91
1.53 1.58 1.56 1.48 1.48 1.44 1.47 1.60 1.67 1.64 1.60 1.54 1.53 1.51 1.44 1.44 1.49 1.62 1.66 1.84 2.03 2.20 2.32 2.31 2.37 2.43 2.45 2.39 2.37 2.14 1.95 1.69 1.37 1.07 1.04 0.88 0.81 0.77 0.73 0.71 0.74 0.82 0.92
1.47 1.63 1.59 1.52 1.49 1.45 1.34 1.39 1.51 1.49 1.50 1.46 1.42 1.29 1.15 1.17 1.24 1.33 1.36 1.65 1.90 2.01 2.11 2.18 2.27 2.43 2.53 2.69 2.53 2.41 2.27 2.12 1.82 1.52 1.49 1.19 1.06 0.92 0.80 0.77 0.77 0.78 0.84
1.53 1.57 1.50 1.49 1.42 1.21 1.22 1.23 1.21 1.25 1.32 1.32 1.34 1.36 1.23 1.08 1.03 1.09 1.11 1.26 1.52 1.67 1.86 2.11 2.26 2.45 2.54 2.53 2.68 2.64 2.54 2.37 2.16 1.90 1.87 1.80 1.63 1.49 1.24 0.98 0.92 0.82 0.75
1.49 1.42 1.35 1.35 1.32 1.23 1.10 1.01 1.00 1.11 1.25 1.29 1.32 1.36 1.17 1.04 1.04 0.96 1.04 1.12 1.17 1.24 1.37 1.71 1.99 2.11 2.15 2.19 2.46 2.58 2.57 2.45 2.37 2.19 2.21 2.23 2.07 1.84 1.46 1.25 1.16 0.97 0.85
1.39 1.41 1.32 1.28 1.34 1.23 1.13 0.97 0.87 0.86 1.02 1.10 1.12 1.16 1.18 1.18 1.11 1.09 1.07 1.08 1.04 1.06 1.12 1.18 1.34 1.49 1.72 1.91 2.12 2.36 2.59 2.55 2.50 2.43 2.39 2.48 2.32 2.17 1.80 1.47 1.29 1.06 0.96
1.39 1.38 1.37 1.38 1.38 1.35 1.25 1.07 0.99 0.99 1.12 1.15 1.19 1.20 1.24 1.29 1.26 1.10 1.05 1.08 1.13 1.17 1.13 1.17 1.14 1.18 1.29 1.41 1.59 1.84 2.14 2.45 2.67 2.67 2.47 2.51 2.43 2.43 2.34 1.91 1.48 1.24 1.02
1.42 1.40 1.46 1.47 1.44 1.43 1.28 1.07 1.03 1.09 1.27 1.36 1.49 1.49 1.37 1.23 1.20 1.06 1.06 1.16 1.15 1.16 1.11 1.08 1.04 1.01 1.02 1.14 1.28 1.46 1.69 1.98 2.24 2.39 2.34 2.44 2.57 2.83 2.92 2.42 1.83 1.39 1.17

GEFSMA_prec_meanprecacc_234.txt.gz
Total_Precipitation_Accumulation
2.31 2.34 2.31 2.30 2.14 2.30 2.54 2.94 2.92 3.14 3.11 2.78 2.37 2.20 2.21 2.27 2.19 2.31 2.57 2.59 2.42 2.49 3.19 3.55 3.40 3.08 2.64 2.21 1.95 1.82 1.73 1.56 1.36 1.10 0.99 1.06 1.10 1.10 0.98 0.78 0.69 0.59 0.47
2.75 2.76 2.66 2.64 2.43 2.41 2.73 3.03 3.09 3.57 3.46 3.32 2.80 2.53 2.38 2.33 2.31 2.44 2.71 2.90 2.81 2.78 3.18 3.64 3.80 3.70 3.32 2.77 2.30 2.04 1.97 1.89 1.69 1.29 1.07 1.10 1.19 1.17 1.12 1.00 0.81 0.65 0.51
2.94 2.85 2.84 2.72 2.75 2.79 2.97 3.05 3.21 3.61 3.41 3.34 3.16 2.87 2.63 2.46 2.36 2.54 2.88 3.19 2.89 2.81 3.14 3.58 3.93 3.87 3.70 3.40 2.87 2.49 2.21 1.99 1.83 1.53 1.23 1.09 1.09 1.08 1.06 1.05 0.93 0.72 0.53
3.02 3.07 2.89 2.73 2.92 2.99 3.18 3.42 3.43 3.53 3.64 3.60 3.40 3.05 2.89 2.79 2.42 2.51 2.67 2.82 3.02 2.62 3.00 3.57 3.80 3.57 3.54 3.68 3.62 3.37 2.96 2.44 2.11 1.75 1.46 1.29 1.20 1.13 1.07 1.05 0.97 0.80 0.56
2.93 3.23 3.09 3.11 3.18 3.38 3.30 3.05 3.54 3.71 3.67 3.61 3.17 3.08 2.74 2.70 2.59 2.45 2.58 2.60 2.81 2.77 2.82 2.90 3.37 3.22 3.41 3.86 4.12 4.20 3.92 3.37 2.74 2.27 1.92 1.68 1.57 1.37 1.16 1.07 0.97 0.78 0.59
2.91 3.21 3.01 3.05 3.24 3.58 3.66 3.61 3.82 3.72 3.58 3.63 3.10 2.93 2.61 2.38 2.36 2.29 2.13 2.35 2.44 2.19 2.35 2.55 2.92 2.49 2.71 3.20 3.68 4.21 4.46 4.36 3.73 2.99 2.64 2.42 2.25 1.85 1.38 1.14 0.99 0.85 0.67
2.88 3.19 2.91 3.26 3.33 3.48 3.67 3.66 3.84 3.75 3.54 3.63 3.55 3.06 2.51 2.19 2.09 1.92 1.93 2.08 2.02 2.07 2.37 2.73 2.96 2.90 2.56 2.52 2.75 3.36 4.21 4.74 4.54 3.88 3.48 3.23 3.00 2.52 1.79 1.39 1.09 0.89 0.78
2.77 2.85 3.29 3.28 3.36 3.53 3.56 3.50 3.58 3.45 3.20 3.48 3.62 3.43 2.79 2.40 2.01 1.65 1.83 1.82 1.94 2.20 2.23 2.25 2.58 2.91 2.77 2.84 2.45 2.45 3.48 4.49 4.96 4.78 4.48 4.11 3.70 2.96 2.25 1.80 1.35 1.03 0.90
2.91 3.02 3.24 3.32 3.32 3.18 3.32 3.48 3.32 3.26 3.15 3.21 3.39 3.46 2.95 2.46 2.04 1.74 1.61 1.63 2.00 2.23 2.16 2.12 2.05 2.22 2.32 2.78 2.97 2.52 2.69 3.08 3.83 4.77 5.17 5.02 4.26 3.13 2.42 2.06 1.77 1.36 1.05
2.72 2.82 2.90 3.07 3.17 3.07 3.15 3.07 3.06 3.15 3.15 2.99 3.10 3.06 2.89 2.67 2.48 2.01 1.61 1.57 1.80 1.94 1.95 1.80 1.85 2.10 2.23 2.62 2.86 2.39 2.11 2.05 2.36 3.41 4.44 4.70 4.24 3.22 2.50 2.28 2.28 1.99 1.46
2.51 2.48 2.62 2.80 2.87 2.79 2.74 2.95 3.20 3.13 2.96 2.85 2.91 2.92 3.04 2.93 2.63 2.31 1.88 1.74 1.66 1.52 1.63 1.69 1.73 1.83 2.05 2.40 2.63 2.18 2.01 1.80 1.73 2.10 2.82 3.37 3.55 3.22 2.75 2.64 2.85 2.82 2.40
2.42 2.33 2.34 2.52 2.62 2.59 2.56 2.66 2.77 2.81 2.78 2.85 2.84 2.78 2.92 2.90 2.77 2.62 2.18 1.89 1.72 1.38 1.41 1.48 1.61 1.70 1.81 2.00 1.84 1.78 1.87 1.69 1.53 1.53 1.78 2.20 2.58 2.75 2.65 2.73 3.00 3.16 3.15
2.32 2.30 2.24 2.29 2.25 2.22 2.29 2.51 2.54 2.50 2.56 2.65 2.63 2.65 2.59 2.49 2.55 2.54 2.36 2.02 1.79 1.43 1.43 1.34 1.36 1.49 1.42 1.73 1.83 1.75 1.64 1.53 1.42 1.40 1.44 1.52 1.76 2.00 2.21 2.38 2.70 3.03 3.26
2.28 2.20 2.05 1.97 1.92 1.91 1.97 2.25 2.39 2.35 2.42 2.45 2.37 2.49 2.34 2.21 2.34 2.33 2.30 2.34 2.14 1.90 1.83 1.63 1.31 1.27 1.34 1.47 1.57 1.57 1.44 1.38 1.25 1.20 1.19 1.20 1.31 1.45 1.62 1.83 2.07 2.25 2.45
1.92 1.91 1.86 1.76 1.71 1.74 1.84 1.93 2.00 1.99 2.12 2.14 2.20 2.21 2.05 2.03 2.12 2.13 2.25 2.39 2.39 2.25 2.15 1.96 1.54 1.27 1.28 1.44 1.64 1.43 1.37 1.28 1.16 1.08 0.99 0.99 1.03 1.12 1.20 1.31 1.50 1.66 1.72
1.92 1.82 1.74 1.65 1.62 1.58 1.61 1.73 1.73 1.77 1.79 1.79 1.96 2.01 1.98 1.96 2.08 2.04 2.10 2.25 2.39 2.43 2.23 1.95 1.73 1.41 1.44 1.38 1.53 1.46 1.44 1.35 1.15 0.99 0.87 0.84 0.89 0.97 1.05 1.11 1.18 1.29 1.33
1.98 1.93 1.82 1.74 1.60 1.50 1.51 1.56 1.47 1.60 1.64 1.62 1.67 1.70 1.76 1.87 2.00 2.01 2.05 2.09 2.29 2.52 2.40 2.22 2.09 1.93 1.79 1.67 1.49 1.47 1.45 1.35 1.16 0.99 0.83 0.77 0.80 0.83 0.88 0.96 1.04 1.14 1.21
1.64 1.65 1.61 1.59 1.58 1.61 1.64 1.55 1.48 1.49 1.53 1.51 1.58 1.70 1.66 1.82 1.97 1.94 2.04 2.07 2.25 2.53 2.62 2.75 2.74 2.44 2.13 1.92 1.81 1.63 1.32 1.20 1.21 1.07 0.91 0.80 0.75 0.76 0.78 0.82 0.89 1.01 1.12
1.55 1.55 1.55 1.49 1.49 1.63 1.74 1.71 1.64 1.65 1.67 1.56 1.64 1.70 1.62 1.70 1.77 1.81 1.91 2.03 2.20 2.39 2.58 2.60 2.67 2.49 2.30 2.01 2.07 1.83 1.53 1.45 1.17 1.11 1.02 0.86 0.76 0.74 0.74 0.79 0.83 0.89 0.97
1.60 1.64 1.62 1.55 1.54 1.50 1.54 1.66 1.73 1.70 1.66 1.60 1.59 1.55 1.47 1.47 1.55 1.69 1.72 1.91 2.11 2.29 2.41 2.39 2.44 2.50 2.53 2.47 2.47 2.25 2.07 1.80 1.47 1.16 1.13 0.95 0.87 0.81 0.76 0.74 0.78 0.85 0.96
1.54 1.69 1.66 1.58 1.55 1.50 1.40 1.45 1.57 1.54 1.56 1.53 1.47 1.34 1.18 1.20 1.29 1.37 1.40 1.70 1.96 2.07 2.18 2.24 2.32 2.49 2.60 2.78 2.62 2.49 2.37 2.24 1.94 1.64 1.58 1.26 1.12 0.97 0.84 0.81 0.81 0.81 0.87
1.60 1.64 1.59 1.57 1.49 1.26 1.28 1.27 1.25 1.29 1.38 1.38 1.40 1.40 1.25 1.10 1.04 1.12 1.14 1.29 1.56 1.72 1.90 2.16 2.30 2.50 2.60 2.61 2.77 2.74 2.67 2.50 2.28 2.00 1.96 1.88 1.70 1.54 1.28 1.01 0.97 0.86 0.79
1.57 1.50 1.42 1.43 1.39 1.30 1.17 1.06 1.03 1.16 1.30 1.34 1.36 1.39 1.19 1.05 1.06 0.98 1.07 1.15 1.20 1.28 1.41 1.76 2.03 2.15 2.21 2.26 2.55 2.67 2.67 2.55 2.47 2.29 2.30 2.32 2.16 1.91 1.50 1.29 1.21 1.01 0.90
1.46 1.48 1.36 1.33 1.41 1.29 1.18 1.00 0.91 0.90 1.07 1.14 1.15 1.19 1.20 1.20 1.12 1.12 1.10 1.13 1.08 1.09 1.15 1.21 1.37 1.54 1.78 1.98 2.20 2.44 2.69 2.64 2.60 2.53 2.48 2.57 2.42 2.26 1.87 1.54 1.36 1.11 1.02
1.42 1.41 1.41 1.43 1.44 1.39 1.29 1.10 1.02 1.04 1.17 1.20 1.22 1.22 1.27 1.31 1.29 1.12 1.08 1.13 1.16 1.21 1.17 1.21 1.17 1.23 1.34 1.47 1.65 1.90 2.21 2.53 2.75 2.76 2.56 2.60 2.51 2.51 2.42 1.99 1.55 1.31 1.07
1.44 1.42 1.49 1.51 1.46 1.45 1.30 1.10 1.08 1.14 1.32 1.41 1.52 1.51 1.39 1.25 1.22 1.08 1.09 1.20 1.19 1.20 1.13 1.11 1.08 1.05 1.06 1.19 1.34 1.51 1.75 2.06 2.32 2.49 2.44 2.53 2.65 2.93 3.03 2.54 1.93 1.47 1.23